When you browse on this site, cookies collect data to enhance your experience and personalize the content and advertising you see.
Visit our Privacy Policy to learn more. By continuing to use the site, you agree to this use of cookies and data.
  • In France
  • List of Countries
  • For 7 days
  • Water Temperature
  • Weather Map
  • Weather Widgets
  • user-avatar
    Login

    Hourly Weather Lezhe

    Today, 23 August, Friday

    Time Temperature Precipitation Wind Pressure Humidity
    00:00 +25°C° 0 mm 2 mps 740 mmHg 43%
    01:00 +25°C° 0 mm 3 mps 740 mmHg 46%
    02:00 +25°C° 0 mm 2 mps 740 mmHg 47%
    03:00 +25°C° 0 mm 2 mps 740 mmHg 48%
    04:00 +25°C° 0 mm 2 mps 740 mmHg 50%
    05:00 +26°C° 0 mm 2 mps 740 mmHg 47%
    06:00 +28°C° 0 mm 2 mps 740 mmHg 45%
    07:00 +29°C° 0 mm 2 mps 741 mmHg 42%
    08:00 +31°C° 0 mm 2 mps 741 mmHg 38%
    09:00 +34°C° 0 mm 2 mps 741 mmHg 34%
    10:00 +36°C° 0 mm 2 mps 741 mmHg 29%
    11:00 +36°C° 0 mm 2 mps 741 mmHg 28%
    12:00 +37°C° 0 mm 3 mps 740 mmHg 26%
    13:00 +37°C° 0 mm 3 mps 740 mmHg 25%
    14:00 +37°C° 0 mm 3 mps 740 mmHg 26%
    15:00 +36°C° 0 mm 2 mps 740 mmHg 28%
    16:00 +36°C° 0 mm 2 mps 739 mmHg 29%
    17:00 +34°C° 0 mm 2 mps 739 mmHg 33%
    18:00 +31°C° 0 mm 2 mps 739 mmHg 38%
    19:00 +29°C° 0 mm 2 mps 739 mmHg 42%
    20:00 +28°C° 0 mm 2 mps 739 mmHg 43%
    21:00 +28°C° 0 mm 2 mps 739 mmHg 44%
    22:00 +27°C° 0 mm 2 mps 740 mmHg 44%
    23:00 +27°C° 0 mm 2 mps 740 mmHg 45%

    Tomorrow, 24 August, Saturday

    Time Temperature Precipitation Wind Pressure Humidity
    00:00 +26°C° 0 mm 2 mps 740 mmHg 46%
    01:00 +26°C° 0 mm 2 mps 739 mmHg 46%
    02:00 +26°C° 0 mm 2 mps 739 mmHg 46%
    03:00 +26°C° 0 mm 2 mps 739 mmHg 46%
    04:00 +26°C° 0 mm 2 mps 739 mmHg 46%
    05:00 +27°C° 0 mm 2 mps 739 mmHg 44%
    06:00 +28°C° 0 mm 2 mps 739 mmHg 41%
    07:00 +29°C° 0 mm 2 mps 739 mmHg 39%
    08:00 +31°C° 0 mm 2 mps 739 mmHg 35%
    09:00 +34°C° 0 mm 2 mps 739 mmHg 31%
    10:00 +36°C° 0 mm 2 mps 740 mmHg 26%
    11:00 +37°C° 0.1 mm 2 mps 739 mmHg 26%
    12:00 +37°C° 0.1 mm 3 mps 739 mmHg 26%
    13:00 +37°C° 0.1 mm 3 mps 738 mmHg 25%
    14:00 +35°C° 0.1 mm 3 mps 738 mmHg 31%
    15:00 +34°C° 0.1 mm 2 mps 738 mmHg 37%
    16:00 +31°C° 0.1 mm 2 mps 738 mmHg 42%
    17:00 +30°C° 0.1 mm 2 mps 738 mmHg 45%
    18:00 +28°C° 0.1 mm 2 mps 738 mmHg 48%
    19:00 +27°C° 0.1 mm 2 mps 738 mmHg 51%
    20:00 +26°C° 0.1 mm 2 mps 738 mmHg 53%
    21:00 +26°C° 0.1 mm 2 mps 738 mmHg 54%
    22:00 +25°C° 0.1 mm 2 mps 739 mmHg 56%
    23:00 +25°C° 0.2 mm 2 mps 738 mmHg 58%

    Day after tomorrow, 25 August, Sunday

    Time Temperature Precipitation Wind Pressure Humidity
    00:00 +24°C° 0.2 mm 2 mps 738 mmHg 60%
    01:00 +24°C° 0.2 mm 2 mps 738 mmHg 62%
    02:00 +23°C° 0.1 mm 2 mps 738 mmHg 64%
    03:00 +23°C° 0.1 mm 2 mps 738 mmHg 65%
    04:00 +23°C° 0.1 mm 2 mps 738 mmHg 66%
    05:00 +24°C° 0 mm 2 mps 738 mmHg 62%
    06:00 +26°C° 0 mm 2 mps 738 mmHg 58%
    07:00 +27°C° 0 mm 2 mps 738 mmHg 54%
    08:00 +30°C° 0 mm 2 mps 738 mmHg 45%
    09:00 +33°C° 0 mm 1 mps 738 mmHg 37%
    10:00 +36°C° 0 mm 1 mps 738 mmHg 28%
    11:00 +37°C° 0 mm 2 mps 738 mmHg 28%
    12:00 +37°C° 0 mm 3 mps 737 mmHg 27%
    13:00 +37°C° 0 mm 4 mps 737 mmHg 26%
    14:00 +35°C° 0.4 mm 3 mps 737 mmHg 37%
    15:00 +31°C° 0.4 mm 3 mps 737 mmHg 48%
    16:00 +28°C° 0.4 mm 3 mps 737 mmHg 59%
    17:00 +27°C° 0.4 mm 3 mps 737 mmHg 63%
    18:00 +25°C° 0.4 mm 3 mps 737 mmHg 68%
    19:00 +22°C° 0.4 mm 3 mps 738 mmHg 72%
    20:00 +22°C° 0.2 mm 3 mps 738 mmHg 74%
    21:00 +22°C° 0.2 mm 3 mps 738 mmHg 77%
    22:00 +22°C° 0.2 mm 3 mps 739 mmHg 79%
    23:00 +21°C° 0 mm 3 mps 738 mmHg 78%

    26 August, Monday

    Time Temperature Precipitation Wind Pressure Humidity
    00:00 +21°C° 0 mm 3 mps 738 mmHg 78%
    01:00 +21°C° 0 mm 3 mps 737 mmHg 77%
    02:00 +21°C° 0 mm 2 mps 737 mmHg 76%
    03:00 +21°C° 0 mm 2 mps 737 mmHg 75%
    04:00 +21°C° 0 mm 2 mps 737 mmHg 73%
    05:00 +23°C° 0 mm 2 mps 738 mmHg 69%
    06:00 +24°C° 0 mm 2 mps 738 mmHg 64%
    07:00 +26°C° 0 mm 2 mps 738 mmHg 60%
    08:00 +29°C° 0 mm 2 mps 738 mmHg 50%
    09:00 +32°C° 0 mm 1 mps 738 mmHg 41%
    10:00 +34°C° 0 mm 1 mps 738 mmHg 31%
    11:00 +36°C° 0 mm 2 mps 738 mmHg 30%
    12:00 +36°C° 0 mm 2 mps 738 mmHg 29%
    13:00 +37°C° 0 mm 3 mps 738 mmHg 28%
    14:00 +34°C° 0.7 mm 3 mps 738 mmHg 38%
    15:00 +30°C° 0.7 mm 3 mps 738 mmHg 48%
    16:00 +28°C° 0.7 mm 4 mps 737 mmHg 58%
    17:00 +26°C° 0.3 mm 3 mps 738 mmHg 62%
    18:00 +24°C° 0.3 mm 3 mps 738 mmHg 66%
    19:00 +23°C° 0.3 mm 2 mps 738 mmHg 71%
    20:00 +22°C° 0 mm 3 mps 739 mmHg 71%
    21:00 +21°C° 0 mm 3 mps 739 mmHg 71%
    22:00 +21°C° 0 mm 3 mps 739 mmHg 71%
    23:00 +21°C° 0 mm 2 mps 739 mmHg 71%

    27 August, Tuesday

    Time Temperature Precipitation Wind Pressure Humidity
    00:00 +21°C° 0 mm 2 mps 739 mmHg 71%
    01:00 +21°C° 0 mm 2 mps 738 mmHg 71%
    02:00 +21°C° 0 mm 2 mps 738 mmHg 70%
    03:00 +21°C° 0 mm 2 mps 738 mmHg 69%
    04:00 +21°C° 0 mm 2 mps 738 mmHg 68%
    05:00 +23°C° 0 mm 2 mps 738 mmHg 64%
    06:00 +24°C° 0 mm 2 mps 738 mmHg 60%
    07:00 +26°C° 0 mm 2 mps 738 mmHg 56%
    08:00 +28°C° 0 mm 2 mps 738 mmHg 48%
    09:00 +31°C° 0 mm 2 mps 739 mmHg 41%
    10:00 +34°C° 0 mm 1 mps 739 mmHg 33%
    11:00 +35°C° 0 mm 2 mps 739 mmHg 32%
    12:00 +36°C° 0 mm 3 mps 738 mmHg 31%
    13:00 +36°C° 0 mm 3 mps 738 mmHg 30%
    14:00 +35°C° 0.1 mm 3 mps 738 mmHg 33%
    15:00 +34°C° 0.1 mm 3 mps 738 mmHg 37%
    16:00 +33°C° 0.1 mm 3 mps 738 mmHg 40%
    17:00 +29°C° 0.3 mm 3 mps 738 mmHg 50%
    18:00 +26°C° 0.3 mm 3 mps 738 mmHg 59%
    19:00 +24°C° 0.3 mm 3 mps 738 mmHg 68%
    20:00 +22°C° 0.2 mm 3 mps 739 mmHg 70%
    21:00 +22°C° 0.2 mm 3 mps 739 mmHg 71%
    22:00 +21°C° 0.2 mm 3 mps 739 mmHg 73%
    23:00 +21°C° 0 mm 3 mps 739 mmHg 73%

    28 August, Wednesday

    Time Temperature Precipitation Wind Pressure Humidity
    00:00 +21°C° 0 mm 2 mps 739 mmHg 73%
    01:00 +21°C° 0 mm 2 mps 738 mmHg 72%
    02:00 +21°C° 0.1 mm 2 mps 738 mmHg 72%
    03:00 +21°C° 0.1 mm 2 mps 738 mmHg 71%
    04:00 +21°C° 0.1 mm 2 mps 738 mmHg 71%
    05:00 +23°C° 0 mm 2 mps 738 mmHg 67%
    06:00 +24°C° 0 mm 2 mps 738 mmHg 63%
    07:00 +26°C° 0 mm 2 mps 738 mmHg 59%
    08:00 +28°C° 0 mm 2 mps 738 mmHg 51%
    09:00 +31°C° 0 mm 2 mps 738 mmHg 42%
    10:00 +34°C° 0 mm 2 mps 738 mmHg 34%
    11:00 +34°C° 0 mm 2 mps 738 mmHg 33%
    12:00 +35°C° 0 mm 3 mps 738 mmHg 32%
    13:00 +35°C° 0 mm 3 mps 737 mmHg 32%
    14:00 +33°C° 0 mm 3 mps 737 mmHg 38%
    15:00 +30°C° 0 mm 2 mps 737 mmHg 44%
    16:00 +28°C° 0 mm 2 mps 736 mmHg 51%
    17:00 +28°C° 0 mm 2 mps 737 mmHg 53%
    18:00 +27°C° 0 mm 2 mps 737 mmHg 54%
    19:00 +26°C° 0 mm 1 mps 737 mmHg 56%
    20:00 +26°C° 0 mm 1 mps 737 mmHg 56%
    21:00 +25°C° 0 mm 1 mps 737 mmHg 56%
    22:00 +25°C° 0 mm 1 mps 737 mmHg 56%
    23:00 +24°C° 0 mm 1 mps 737 mmHg 54%
    Show more